Location: *
(42.0175°N, 9.4056°E)
Time: 23:40:56
(UTC+00:00)

Cosmos 1674 Rocket - Pass Details

Date: 25 August 2019
Orbit: 602 x 631 km, 82.5° (Epoch: 19 September)

Event Time Altitude Azimuth Distance (km) Brightness Sun altitude
Rises 19:19:57 0° 354° (N) 2,876 7.5 -13.2°
Reaches altitude 10° 19:22:12 10° 357° (N) 1,963 6.6 -13.6°
Maximum altitude 19:26:31 69° 80° (E) 648 3.4 -14.3°
Enters shadow 19:29:56 16° 163° (SSE) 1,598 5.3 -14.9°
